SB KEPS @ AMSAT $ORB13115.O
Orbital Elements 13115.OSCAR
HR AMSAT ORBITAL ELEMENTS FOR OSCAR SATELLITES
FROM WA5QGD FORT WORTH,TX April 25, 2013
BID: ORB13115.O
TO ALL RADIO AMATEURS BT
Satellite: AO-07
Catalog number: 07530
Epoch time: 13115.03159480
Element set: 664
Inclination: 101.4283 deg
RA of node: 106.4735 deg
Eccentricity: 0.0012171
Arg of perigee: 034.4144 deg
Mean anomaly: 357.5106 deg
Mean motion: 12.53595826 rev/day
Decay rate: -4.1e-07 rev/day^2
Epoch rev: 75912
Checksum: 270
Satellite: FO-29
Catalog number: 24278
Epoch time: 13114.76560875
Element set: 100
Inclination: 098.5596 deg
RA of node: 180.4621 deg
Eccentricity: 0.0349522
Arg of perigee: 302.6431 deg
Mean anomaly: 207.0698 deg
Mean motion: 13.52998520 rev/day
Decay rate: 1.5e-07 rev/day^2
Epoch rev: 82408
Checksum: 312
Satellite: SO-33
Catalog number: 25509
Epoch time: 13114.81033512
Element set: 481
Inclination: 031.4325 deg
RA of node: 009.8274 deg
Eccentricity: 0.0351235
Arg of perigee: 050.6411 deg
Mean anomaly: 004.3846 deg
Mean motion: 14.29017452 rev/day
Decay rate: 7.87e-06 rev/day^2
Epoch rev: 75725
Checksum: 275
Satellite: RS-22
Catalog number: 27939
Epoch time: 13115.57071483
Element set: 354
Inclination: 097.7993 deg
RA of node: 306.1690 deg
Eccentricity: 0.0013427
Arg of perigee: 359.0939 deg
Mean anomaly: 001.0230 deg
Mean motion: 14.64399137 rev/day
Decay rate: 4.12e-06 rev/day^2
Epoch rev: 51159
Checksum: 307
Satellite: VO-52
Catalog number: 28650
Epoch time: 13115.11356773
Element set: 405
Inclination: 097.5708 deg
RA of node: 136.4380 deg
Eccentricity: 0.0027663
Arg of perigee: 096.4017 deg
Mean anomaly: 295.8952 deg
Mean motion: 14.83736386 rev/day
Decay rate: 1.184e-05 rev/day^2
Epoch rev: 43121
Checksum: 316
Satellite: HO-68
Catalog number: 36122
Epoch time: 13115.68110952
Element set: 491
Inclination: 100.3119 deg
RA of node: 174.0504 deg
Eccentricity: 0.0007868
Arg of perigee: 113.9543 deg
Mean anomaly: 246.2386 deg
Mean motion: 13.16303422 rev/day
Decay rate: -4.4e-07 rev/day^2
Epoch rev: 16150
Checksum: 265
/EX
SB KEPS @ AMSAT $ORB13115.D
Orbital Elements 13115.MICROS
HR AMSAT ORBITAL ELEMENTS FOR THE MICROSATS
FROM WA5QGD FORT WORTH,TX April 25, 2013
BID: ORB13115.D
TO ALL RADIO AMATEURS BT
Satellite: UO-11
Catalog number: 14781
Epoch time: 13115.20136812
Element set: 161
Inclination: 097.9072 deg
RA of node: 177.2597 deg
Eccentricity: 0.0010386
Arg of perigee: 102.4096 deg
Mean anomaly: 257.8279 deg
Mean motion: 14.80832349 rev/day
Decay rate: 5.17e-06 rev/day^2
Epoch rev: 56609
Checksum: 308
Satellite: AO-16
Catalog number: 20439
Epoch time: 13114.84143802
Element set: 730
Inclination: 098.4682 deg
RA of node: 056.1164 deg
Eccentricity: 0.0009961
Arg of perigee: 321.1555 deg
Mean anomaly: 072.5948 deg
Mean motion: 14.32160502 rev/day
Decay rate: 1.42e-06 rev/day^2
Epoch rev: 21460
Checksum: 271
Satellite: LO-19
Catalog number: 20442
Epoch time: 13115.79562175
Element set: 664
Inclination: 098.4368 deg
RA of node: 059.0018 deg
Eccentricity: 0.0010763
Arg of perigee: 307.2083 deg
Mean anomaly: 085.7257 deg
Mean motion: 14.32372913 rev/day
Decay rate: 1.43e-06 rev/day^2
Epoch rev: 21493
Checksum: 298
Satellite: AO-27
Catalog number: 22825
Epoch time: 13114.86606583
Element set: 367
Inclination: 098.6147 deg
RA of node: 059.4658 deg
Eccentricity: 0.0009586
Arg of perigee: 087.1582 deg
Mean anomaly: 306.4879 deg
Mean motion: 14.29551427 rev/day
Decay rate: 1.05e-06 rev/day^2
Epoch rev: 2101
Checksum: 324
Satellite: IO-26
Catalog number: 22826
Epoch time: 13114.87627787
Element set: 124
Inclination: 098.6088 deg
RA of node: 059.7737 deg
Eccentricity: 0.0010077
Arg of perigee: 081.1302 deg
Mean anomaly: 312.2091 deg
Mean motion: 14.29834328 rev/day
Decay rate: 1.28e-06 rev/day^2
Epoch rev: 2114
Checksum: 295
Satellite: GO-32
Catalog number: 25397
Epoch time: 13114.82831894
Element set: 54
Inclination: 098.4098 deg
RA of node: 084.9224 deg
Eccentricity: 0.0002476
Arg of perigee: 097.3738 deg
Mean anomaly: 292.7748 deg
Mean motion: 14.23333705 rev/day
Decay rate: 5.3e-07 rev/day^2
Epoch rev: 76835
Checksum: 334
Satellite: NO-44
Catalog number: 26931
Epoch time: 13115.85519706
Element set: 313
Inclination: 067.0538 deg
RA of node: 034.4117 deg
Eccentricity: 0.0006871
Arg of perigee: 286.0930 deg
Mean anomaly: 110.1934 deg
Mean motion: 14.29911069 rev/day
Decay rate: 1.04e-06 rev/day^2
Epoch rev: 60394
Checksum: 285
Satellite: SO-50
Catalog number: 27607
Epoch time: 13115.16375065
Element set: 48
Inclination: 064.5578 deg
RA of node: 065.5481 deg
Eccentricity: 0.0051746
Arg of perigee: 180.1269 deg
Mean anomaly: 275.8485 deg
Mean motion: 14.72865011 rev/day
Decay rate: 4.93e-06 rev/day^2
Epoch rev: 55590
Checksum: 321
Satellite: CO-55
Catalog number: 27844
Epoch time: 13114.57247380
Element set: 632
Inclination: 098.7018 deg
RA of node: 124.4248 deg
Eccentricity: 0.0010403
Arg of perigee: 050.3341 deg
Mean anomaly: 095.8211 deg
Mean motion: 14.21194521 rev/day
Decay rate: 1.94e-06 rev/day^2
Epoch rev: 50911
Checksum: 270
Satellite: CO-57
Catalog number: 27848
Epoch time: 13115.54837708
Element set: 578
Inclination: 098.7102 deg
RA of node: 124.8712 deg
Eccentricity: 0.0010372
Arg of perigee: 053.3013 deg
Mean anomaly: 092.6363 deg
Mean motion: 14.20923290 rev/day
Decay rate: 1.49e-06 rev/day^2
Epoch rev: 50918
Checksum: 302
Satellite: AO-51
Catalog number: 28375
Epoch time: 13114.84970295
Element set: 540
Inclination: 098.1969 deg
RA of node: 072.4658 deg
Eccentricity: 0.0083848
Arg of perigee: 176.6311 deg
Mean anomaly: 204.1913 deg
Mean motion: 14.41097362 rev/day
Decay rate: 1.46e-06 rev/day^2
Epoch rev: 46365
Checksum: 326
Satellite: CP3
Catalog number: 31129
Epoch time: 13115.66698362
Element set: 445
Inclination: 097.8958 deg
RA of node: 111.2813 deg
Eccentricity: 0.0099386
Arg of perigee: 230.2256 deg
Mean anomaly: 190.4493 deg
Mean motion: 14.53580554 rev/day
Decay rate: 5.30e-06 rev/day^2
Epoch rev: 31936
Checksum: 316
Satellite: CO-65
Catalog number: 32785
Epoch time: 13115.72547332
Element set: 614
Inclination: 097.7560 deg
RA of node: 174.7469 deg
Eccentricity: 0.0015936
Arg of perigee: 118.7374 deg
Mean anomaly: 028.1173 deg
Mean motion: 14.83745831 rev/day
Decay rate: 1.052e-05 rev/day^2
Epoch rev: 27009
Checksum: 319
Satellite: PRISM
Catalog number: 33493
Epoch time: 13115.89051458
Element set: 745
Inclination: 098.2105 deg
RA of node: 271.1264 deg
Eccentricity: 0.0018163
Arg of perigee: 006.6356 deg
Mean anomaly: 353.5107 deg
Mean motion: 14.85675445 rev/day
Decay rate: 1.967e-05 rev/day^2
Epoch rev: 23015
Checksum: 297
Satellite: SOHLA-1
Catalog number: 33496
Epoch time: 13115.81636146
Element set: 29
Inclination: 098.1287 deg
RA of node: 231.9915 deg
Eccentricity: 0.0007903
Arg of perigee: 125.2782 deg
Mean anomaly: 035.9699 deg
Mean motion: 14.70246922 rev/day
Decay rate: 3.89e-06 rev/day^2
Epoch rev: 22817
Checksum: 322
Satellite: SO-67
Catalog number: 35870
Epoch time: 13115.81283943
Element set: 0
Inclination: 097.1961 deg
RA of node: 146.4381 deg
Eccentricity: 0.0003320
Arg of perigee: 117.1847 deg
Mean anomaly: 358.7250 deg
Mean motion: 15.26553097 rev/day
Decay rate: 3.469e-05 rev/day^2
Epoch rev: 20026
Checksum: 296
Satellite: TISAT-1
Catalog number: 36799
Epoch time: 13115.76823448
Element set: 16
Inclination: 098.0346 deg
RA of node: 200.1521 deg
Eccentricity: 0.0013451
Arg of perigee: 235.7555 deg
Mean anomaly: 124.2382 deg
Mean motion: 14.83093030 rev/day
Decay rate: 1.202e-05 rev/day^2
Epoch rev: 15080
Checksum: 263
Satellite: STUDSAT
Catalog number: 36801
Epoch time: 13115.19141752
Element set: 619
Inclination: 098.0460 deg
RA of node: 202.2447 deg
Eccentricity: 0.0011725
Arg of perigee: 214.7597 deg
Mean anomaly: 178.0818 deg
Mean motion: 14.87645574 rev/day
Decay rate: 6.489e-05 rev/day^2
Epoch rev: 15084
Checksum: 311
Satellite: ALMASAT-1
Catalog number: 38078
Epoch time: 13115.63173273
Element set: 208
Inclination: 069.4841 deg
RA of node: 322.7341 deg
Eccentricity: 0.0711121
Arg of perigee: 214.2596 deg
Mean anomaly: 141.0828 deg
Mean motion: 14.21477367 rev/day
Decay rate: 1.8016e-04 rev/day^2
Epoch rev: 6176
Checksum: 286
Satellite: XATCOBEO
Catalog number: 38082
Epoch time: 13115.55457501
Element set: 100
Inclination: 069.4835 deg
RA of node: 303.5942 deg
Eccentricity: 0.0613863
Arg of perigee: 203.6728 deg
Mean anomaly: 153.5294 deg
Mean motion: 14.46702883 rev/day
Decay rate: 6.6935e-04 rev/day^2
Epoch rev: 6228
Checksum: 307
Satellite: SOMP
Catalog number: 39135
Epoch time: 13115.67851839
Element set: 15
Inclination: 064.8815 deg
RA of node: 013.4192 deg
Eccentricity: 0.0019282
Arg of perigee: 213.6266 deg
Mean anomaly: 146.4117 deg
Mean motion: 14.99828808 rev/day
Decay rate: 2.982e-05 rev/day^2
Epoch rev: 95
Checksum: 309
/EX
SB KEPS @ AMSAT $ORB13115.W
Orbital Elements 13115.WEATHER
HR AMSAT ORBITAL ELEMENTS FOR WEATHER SATELLITES
FROM WA5QGD FORT WORTH,TX April 25, 2013
BID: ORB13115.W
TO ALL RADIO AMATEURS BT
Satellite: NOAA-10
Catalog number: 16969
Epoch time: 13115.41416535
Element set: 327
Inclination: 098.5493 deg
RA of node: 144.3921 deg
Eccentricity: 0.0012824
Arg of perigee: 045.7362 deg
Mean anomaly: 018.2022 deg
Mean motion: 14.27629996 rev/day
Decay rate: 4.1e-07 rev/day^2
Epoch rev: 38441
Checksum: 296
Satellite: NOAA-11
Catalog number: 19531
Epoch time: 13115.27173341
Element set: 329
Inclination: 098.7110 deg
RA of node: 199.5497 deg
Eccentricity: 0.0011921
Arg of perigee: 057.6752 deg
Mean anomaly: 335.2904 deg
Mean motion: 14.15010689 rev/day
Decay rate: 5.2e-07 rev/day^2
Epoch rev: 26864
Checksum: 295
Satellite: NOAA-12
Catalog number: 21263
Epoch time: 13115.48522913
Element set: 799
Inclination: 098.7006 deg
RA of node: 141.2797 deg
Eccentricity: 0.0013795
Arg of perigee: 018.3967 deg
Mean anomaly: 116.5997 deg
Mean motion: 14.25557866 rev/day
Decay rate: -1.0e-08 rev/day^2
Epoch rev: 14104
Checksum: 318
